SB KEPS @ AMSAT $ORB14170.N 2Line Orbital Elements 14170.AMSAT
HR AMSAT ORBITAL ELEMENTS FOR AMATEUR SATELLITES IN NASA FORMAT FROM WA5QGD FORT WORTH,TX June 19, 2014 BID: ORB14170.N
DECODE 2-LINE ELSETS WITH THE FOLLOWING KEY: 1 AAAAAU 00 0 0 BBBBB.BBBBBBBB .CCCCCCCC 00000-0 00000-0 0 DDDZ 2 AAAAA EEE.EEEE FFF.FFFF GGGGGGG HHH.HHHH III.IIII JJ.JJJJJJJJKKKKKZ KEY: A-CATALOGNUM B-EPOCHTIME C-DECAY D-ELSETNUM E-INCLINATION F-RAAN G-ECCENTRICITY H-ARGPERIGEE I-MNANOM J-MNMOTION K-ORBITNUM Z-CHECKSUM
TO ALL RADIO AMATEURS BT
AO-07 1 07530U 74089B 14169.81246832 -.00000027 00000-0 10266-3 0 9930 2 07530 101.4707 151.5904 0011440 292.8982 133.5330 12.53605529811727 FO-29 1 24278U 96046B 14170.37653102 -.00000020 00000-0 18860-4 0 3992 2 24278 098.5116 183.9333 0349394 292.0108 175.3043 13.53025046880962 SO-33 1 25509U 98061B 14170.37887336 .00000147 00000-0 17127-4 0 7759 2 25509 031.4313 147.9628 0349564 133.6270 352.9719 14.29549738817462 RS-22 1 27939U 03042A 14170.55484426 .00000455 00000-0 92648-4 0 5937 2 27939 097.8113 344.5816 0014450 098.9025 261.3808 14.65216020573076 VO-52 1 28650U 05017B 14169.83765652 .00000921 00000-0 11192-3 0 7680 2 28650 097.5594 174.7213 0026246 149.8946 210.3785 14.85501306493474 HO-68 1 36122U 09072B 14170.77029223 -.00000043 00000-0 00000 0 0 6935 2 36122 100.2487 222.5701 0007297 230.2660 129.7808 13.16316423216779 AO-73 1 39444U 13066AE 14170.25430152 .00001491 00000-0 20607-3 0 1721 2 39444 097.7715 240.8381 0060906 236.2249 123.3158 14.78316722 29776 UO-11 1 14781U 84021B 14170.12550401 .00000436 00000-0 62079-4 0 5220 2 14781 097.8527 230.2150 0009403 166.5175 193.6291 14.81612690628253 AO-16 1 20439U 90005D 14170.82486668 .00000035 00000-0 29092-4 0 482 2 20439 098.5066 108.1111 0011746 147.1182 270.6758 14.32360638274868 LO-19 1 20442U 90005G 14170.79923602 .00000037 00000-0 29495-4 0 9866 2 20442 098.4774 108.7330 0012854 137.4381 222.7801 14.32562844275052 AO-27 1 22825U 93061C 14170.09378236 .00000034 00000-0 30672-4 0 6940 2 22825 098.6614 116.1640 0007254 294.5370 193.6615 14.29723388 81054 IO-26 1 22826U 93061D 14169.78392220 .00000027 00000-0 27756-4 0 4505 2 22826 098.6557 116.0750 0007760 286.9469 073.0863 14.30024052 81148 GO-32 1 25397U 98043D 14170.49249781 -.00000003 00000-0 17079-4 0 3735 2 25397 098.4680 128.3944 0000501 020.7460 100.2114 14.23447027828190 NO-44 1 26931U 01043C 14169.79338211 .00000049 00000-0 50765-4 0 6283 2 26931 067.0525 034.3149 0006379 282.6928 077.3459 14.30121199663836 SO-50 1 27607U 02058C 14170.45973605 .00000271 00000-0 61730-4 0 4232 2 27607 064.5554 225.4198 0047902 010.0179 350.1865 14.73780782617812 CO-55 1 27844U 03031E 14170.03270181 .00000132 00000-0 80191-4 0 9503 2 27844 098.6975 178.7781 0008457 268.6410 154.9022 14.21512754568847 CO-57 1 27848U 03031J 14169.96789880 .00000131 00000-0 80476-4 0 8917 2 27848 098.7067 178.4257 0008352 276.1375 149.2631 14.21198964568753 AO-51 1 28375U 04025K 14170.77468724 .00000072 00000-0 34509-4 0 8672 2 28375 098.2499 117.5953 0082496 345.4267 014.4545 14.41392419524270 CP3 1 31129U 07012N 14170.63901333 .00000538 00000-0 12824-3 0 7755 2 31129 097.9329 148.4958 0098170 004.2789 055.0374 14.54704403380390 CO-65 1 32785U 08021C 14170.46374918 .00000933 00000-0 11447-3 0 9794 2 32785 097.6998 221.6860 0014365 175.6752 294.1481 14.85312006332368 PRISM 1 33493U 09002B 14170.76632181 .00002822 00000-0 30198-3 0 247 2 33493 098.2490 346.5245 0019380 076.7153 283.6213 14.89465781292567 SOHLA-1 1 33496U 09002E 14170.42859146 .00000210 00000-0 42677-4 0 3805 2 33496 098.1702 291.3645 0005634 224.8569 175.1805 14.70815544289845 TISAT-1 1 36799U 10035E 14170.77763610 .00002154 00000-0 25455-3 0 2857 2 36799 098.0170 262.7913 0012550 318.0742 041.9488 14.85685223213104 STUDSAT 1 36801U 10035G 14170.33482017 .00005955 00000-0 52600-3 0 8414 2 36801 098.0348 270.4301 0007895 282.9086 112.8430 14.96735484213458 ALMASAT-1 1 38078U 12006B 14170.42925534 .00032210 00000-0 67756-3 0 580 2 38078 069.4692 053.8950 0592123 028.7845 022.5978 14.50235424121962 XATCOBEO 1 38082U 12006F 14170.83680162 .00195169 13919-4 10389-2 0 3262 2 38082 069.4410 308.6319 0198148 329.7853 182.8739 15.57306036124804 CUBEBUG-1 1 39153U 13018D 14170.79517675 .00001123 00000-0 16366-3 0 2214 2 39153 098.0423 251.0914 0017793 346.6589 013.4112 14.77728671 61941 ESTCUBE-1 1 39161U 13021C 14170.74106517 .00000966 00000-0 16915-3 0 2080 2 39161 098.0968 251.6181 0010957 035.4489 324.7424 14.70008835 59973 MET-2/21 1 22782U 93055A 14170.47350066 .00000046 00000-0 28395-4 0 865 2 22782 082.5479 171.4908 0020949 257.2446 256.7140 13.83737651 50433 OKEAN-4 1 23317U 94066A 14170.49047454 .00000653 00000-0 72443-4 0 5647 2 23317 082.5392 065.7763 0022310 092.4168 246.5322 14.85541185 63442 NOAA-14 1 23455U 94089A 14170.47854891 -.00000060 00000-0 -85467-5 0 7898 2 23455 098.7786 253.8742 0009868 039.7763 021.3803 14.13976718 4270 NOAA-15 1 25338U 98030A 14170.51062861 .00000128 00000-0 73104-4 0 2244 2 25338 098.7517 164.3648 0011617 137.8926 330.5773 14.25432441837178 RESURS 1 25394U 98043A 14169.97663646 -.00000035 00000-0 30273-5 0 6834 2 25394 098.4120 134.2725 0000588 189.5256 214.4640 14.24395650828570 FENGYUN1 1 25730U 99025A 14170.46993713 .00000597 00000-0 34979-3 0 1726 2 25730 098.9122 131.5467 0026577 102.7993 005.9544 14.11913000777845 OKEAN-0 1 25860U 99039A 14170.00174541 .00000377 00000-0 63210-4 0 2802 2 25860 098.0420 133.8555 0001872 090.0785 313.8375 14.75284746802427 NOAA-16 1 26536U 00055A 14170.44201900 .00000261 00000-0 16411-3 0 7202 2 26536 098.9906 230.8164 0011046 174.1366 307.0720 14.13034118708436 NOAA-17 1 27453U 02032A 14170.44041880 .00000031 00000-0 30822-4 0 6192 2 27453 098.3133 170.0344 0012324 162.3781 197.7829 14.24751834623002 NOAA-18 1 28654U 05018A 14170.45763362 .00000138 00000-0 10050-3 0 1193 2 28654 099.1473 150.0027 0013270 256.3512 256.6306 14.12028268467887 NOAA-19 1 33591U 09005A 14170.47870387 .00000227 00000-0 14885-3 0 2737 2 33591 098.9441 115.5090 0015238 112.0468 357.4288 14.11724732276318 HUBBLE 1 20580U 90037B 14170.05744166 .00001347 00000-0 79666-4 0 376 2 20580 028.4708 024.8360 0003047 310.3969 181.4340 15.05462737125003 ISS 1 25544U 98067A 14171.00887130 .00053844 00000-0 91834-3 0 5269 2 25544 051.6451 085.5798 0003819 110.3339 000.9873 15.50804341891766 CO-58 1 28895U 05043F 14170.05825199 .00000430 00000-0 94719-4 0 7962 2 28895 097.8351 011.8294 0017246 010.0784 350.0761 14.61901342460522 FALCON 1 30776U 07006E 14170.22453223 .00004219 00000-0 21502-3 0 8923 2 30776 035.4292 101.1339 0002802 288.9850 188.6207 15.16337762401042 MAST 1 31126U 07012K 14170.81751644 .00000308 00000-0 77405-4 0 722 2 31126 097.9134 151.5728 0091400 347.0440 081.3684 14.55291394380771 CAPE1 1 31130U 07012P 14170.48146469 .00000511 00000-0 12295-3 0 791 2 31130 097.9343 147.9100 0098840 006.0871 354.1502 14.54457387380142 COMPASS 1 32787U 08021E 14170.11656256 .00001552 00000-0 17501-3 0 9601 2 32787 097.7021 223.5923 0014488 169.0668 191.0866 14.87927569332470 AAUSAT2 1 32788U 08021F 14170.11981647 .00001734 00000-0 19145-3 0 9469 2 32788 097.7030 224.5849 0013978 167.1524 193.0052 14.88638784332537 DO-64 1 32789U 08021G 14170.43834020 .00003322 00000-0 32105-3 0 9878 2 32789 097.7212 231.4172 0013184 153.1076 328.2931 14.93424344332834 CO-66 1 32791U 08021J 14170.14205973 .00001197 00000-0 14070-3 0 9439 2 32791 097.7015 222.3791 0015137 172.5356 187.6088 14.86587653332341 RS-30 1 32953U 08025A 14170.56479894 .00000010 00000-0 00000 0 0 263 2 32953 082.5021 199.7318 0019749 147.4345 212.7958 12.43048369275556 METEOR-M 1 35865U 09049A 14170.75864198 -.00000003 00000-0 17936-4 0 6384 2 35865 098.5502 218.0941 0003467 085.8879 274.2686 14.21924192246707 RS-38 1 35869U 09049E 14170.81822163 .00000004 00000-0 21095-4 0 5617 2 35869 098.5432 217.9490 0005818 091.6751 032.5947 14.22213459246743 JUGNU 1 37839U 11058B 14169.60153416 .00000351 00000-0 45834-4 0 6389 2 37839 019.9603 246.3685 0019343 359.9875 144.1278 14.12313880138752 SRMSAT 1 37841U 11058D 14169.67338756 .00000327 00000-0 34706-4 0 6425 2 37841 019.9704 265.2842 0011759 301.0281 217.0006 14.10354890138577 RAX-2 1 37853U 11061D 14170.70628396 .00005424 00000-0 37453-3 0 8369 2 37853 101.7146 201.5477 0216445 049.5941 064.2974 14.89498648143032 AUBIESAT 1 37854U 11061E 14170.07688590 .00007279 00000-0 48424-3 0 8182 2 37854 101.7181 202.4841 0214387 048.5118 013.0740 14.90810872142991 HRBE 1 37855U 11061F 14170.06558911 .00006689 00000-0 45084-3 0 8256 2 37855 101.7184 201.8276 0216559 049.8378 006.0488 14.90124447142969 RS-39 1 38051U 11062C 14170.68761843 .00042609 00000-0 50198-3 0 6470 2 38051 051.6248 210.1892 0001075 252.1301 199.8789 15.60944965134508 E-STAR 1 38079U 12006C 14170.76663882 .00060292 42207-5 69217-3 0 8889 2 38079 069.4519 344.8533 0367391 351.0752 087.8972 15.09597966123852 GOLIAT 1 38085U 12006J 14170.61765511 .00058225 40956-5 70819-3 0 1326 2 38085 069.4567 352.3873 0390961 354.9594 004.7669 15.03633289123649 HORYU-2 1 38340U 12025D 14169.92330726 .00000806 00000-0 13498-3 0 8846 2 38340 098.2629 127.1502 0012047 165.1075 195.0480 14.72539328112053 RS-40 1 38735U 12041C 14169.81479015 .00000024 00000-0 10000-3 0 5996 2 38735 082.4782 286.5253 0016034 249.7472 110.1892 12.42560045 85788 PROITERES 1 38756U 12047B 14170.76923594 .00000269 00000-0 47981-4 0 9384 2 38756 098.2291 259.1051 0012518 022.0376 338.1368 14.74975837 95553 BEESAT-3 1 39134U 13015E 14170.24383379 .00005187 00000-0 36990-3 0 6170 2 39134 064.8696 132.0381 0027969 307.2296 052.6273 15.05316168 63977 BEESAT-2 1 39136U 13015G 14170.50800392 .00004517 00000-0 32904-3 0 6032 2 39136 064.8692 131.6832 0027961 307.1232 052.7333 15.04703745 64005 LO-75 1 39382U 13064C 14170.14164949 .00058872 00000-0 12069-2 0 2757 2 39382 040.4947 082.9113 0021231 255.2096 104.6317 15.44903663 32364 ZACUBE-1 1 39417U 13066B 14170.47288517 .00000812 00000-0 11598-3 0 3278 2 39417 097.7737 241.0146 0061263 234.9238 124.6183 14.78109112 31039 TRITON-1 1 39427U 13066M 14169.75717342 .00000843 00000-0 14970-3 0 1810 2 39427 097.7638 236.1124 0117067 245.4389 113.4556 14.65393092 30621 DELFIN3XT 1 39428U 13066N 14170.50305432 .00001364 00000-0 24390-3 0 1837 2 39428 097.7602 236.0523 0127462 244.9143 113.8783 14.63299044 30678 GOMX-1 1 39430U 13066Q 14170.71089285 .00000712 00000-0 14465-3 0 5739 2 39430 097.7574 234.2187 0155192 249.6828 108.7629 14.56830765 30583 MO-76 1 39436U 13066W 14170.18227327 .00010356 00000-0 10677-2 0 2425 2 39436 097.7780 243.7673 0025270 238.4593 121.3981 14.90174749 31170 LO-74 1 39440U 13066AA 14170.23752075 .00001063 00000-0 16432-3 0 1799 2 39440 097.7723 239.1165 0082950 238.3979 120.9106 14.73056495 30881 PUCPSAT-1 1 39442U 13066AC 14170.18734789 .00002000 00000-0 23240-3 0 1761 2 39442 097.7803 243.3193 0033322 238.2944 121.5023 14.86092128 29925 LO-78 1 39569U 98067EN 14170.78621858 .00223518 00000-0 10486-2 0 3424 2 39569 051.6407 074.4364 0004283 118.0902 282.7974 15.81997289 17447 SHINAISAT 1 39572U 14009A 14170.88240483 .00038470 00000-0 32103-3 0 1525 2 39572 065.0087 033.5973 0016847 281.9597 077.9668 15.69670065 17535 OPUSAT 1 39575U 14009D 14170.54059206 .00226322 25451-4 73487-3 0 1854 2 39575 065.0014 029.3740 0015370 281.5899 078.3545 15.90358815 17588 TEIKYOSAT 1 39576U 14009E 14170.90865727 .00052732 00000-0 37576-3 0 1566 2 39576 065.0089 032.2147 0015522 296.0291 063.9268 15.73353990 17561 CO-77 1 39577U 14009F 14170.51446030 .00108501 00000-0 53742-3 0 1655 2 39577 065.0073 031.3596 0014067 291.7751 068.2195 15.81341089 17549 STARS-II 1 39579U 14009H 14116.06110564 .20186783 77451-5 52661-3 0 1329 2 39579 064.9886 219.0071 0013010 293.8065 069.6132 16.44611049 9028 SPROUT 1 39770U 14029E 14170.76606283 .00000974 00000-0 12750-3 0 396 2 39770 097.8721 267.8789 0008713 311.9240 048.1246 14.82604242 3920 /EX
participants (1)
-
Ray Hoad